Regional Weather Roundup
Issued by NWS

Home | Current Version | Previous Version | Graphics & Text | Print | Product List | Glossary On
Versions: 1 2 3 4 5 6 7 8 9 10 11 12 13 14 15 16 17 18 19 20 21 22 23 24 25 26 27 28 29 30 31 32 33 34 35 36 37 38 39 40 41 42 43 44 45 46 47 48 49 50
208
ASUS43 KOAX 052002
RWRNE

WEATHER ROUNDUP FOR NEBRASKA
NATIONAL WEATHER SERVICE OMAHA NE
200 PM CST FRI FEB 05 2016

NOTES: SATELLITE DATA IS BEING USED TO AUGMENT CLOUD COVER ABOVE
       12000 FEET.
       "FAIR" INDICATES FEW OR NO CLOUDS BELOW 12,000 FEET WITH NO
       SIGNIFICANT WEATHER AND/OR OBSTRUCTIONS TO VISIBILITY.

  * THESE STATIONS DO NOT REPORT WEATHER SUCH AS RAIN...SNOW OR FOG.

NEZ001>004-019>022-054>056-052100-
NEBRASKA PANHANDLE

CITY           SKY/WX    TMP DP  RH WIND       PRES   REMARKS
SCOTTSBLUFF    SUNNY     34  20  56 W17       30.26F WCI  23
ALLIANCE       SUNNY     33  24  69 W18       30.21F WCI  22
CHADRON        SUNNY     36  25  64 W17G25    30.24S WCI  26
KIMBALL        SUNNY     30  19  63 NW24G30   30.25F WCI  16
SIDNEY         SUNNY     31  21  66 NW21      30.25F WCI  18
$$

NEZ057>060-069>072-079>082-052100-
SOUTHWEST NEBRASKA

CITY           SKY/WX    TMP DP  RH WIND       PRES   REMARKS
NORTH PLATTE   PTSUNNY   36  26  67 NW10      30.21F WCI  28
IMPERIAL       PTSUNNY   34  21  59 NW20G28   30.25F WCI  23
LEXINGTON      CLOUDY    35  26  69 W13       30.21F WCI  26
MCCOOK         SUNNY     37  26  64 NW16      30.24F WCI  28
$$

NEZ005>010-023>029-035>040-094-052100-
NORTH CENTRAL NEBRASKA

CITY           SKY/WX    TMP DP  RH WIND       PRES   REMARKS
VALENTINE      CLOUDY    35  26  69 NW21G26   30.19F WCI  24
AINSWORTH      FLURRIES  35  28  77 NW21      30.18S WCI  23
BROKEN BOW     CLOUDY    38  27  64 NW13      30.18F WCI  30
ORD            CLOUDY    37  28  70 W10       30.17F WCI  30
$$

NEZ041-046>049-061>064-073>077-083>087-052100-
SOUTH CENTRAL NEBRASKA

CITY           SKY/WX    TMP DP  RH WIND       PRES   REMARKS
GRAND ISLAND   CLOUDY    35  29  78 W12       30.20F WCI  27
AURORA         CLOUDY    34  31  88 SW13      30.20F WCI  25
HASTINGS       CLOUDY    35  29  78 SW12G17   30.20F WCI  27
HEBRON         CLOUDY    32  26  77 SW9       30.25F WCI  24
KEARNEY *      MOSUNNY   43  -9  11 W10       30.20F
$$

NEZ011>018-030>034-042>045-052100-
NORTHEAST NEBRASKA

CITY           SKY/WX    TMP DP  RH WIND       PRES   REMARKS
NORFOLK        CLOUDY    32  27  81 SW10      30.17F WCI  24
COLUMBUS *     CLOUDY    34  23  64 S9        30.20F WCI  26
FREMONT        LGT SNOW  29  25  86 S10       30.23F WCI  20
TEKAMAH        LGT SNOW  29  26  89 S14       30.25F FOG     WCI  18
$$

NEZ050>053-065>068-078-088>093-052100-
SOUTHEAST NEBRASKA

CITY           SKY/WX    TMP DP  RH WIND       PRES   REMARKS
LINCOLN        LGT SNOW  31  28  89 S8        30.26F FOG     WCI  23
OMAHA EPPLEY   LGT SNOW  29  27  92 S13       30.26F VSB 3/4 WCI  19
BEATRICE       LGT SNOW  32  28  83 S9        30.25F WCI  24
FALLS CITY     CLOUDY    35  23  61 S13       30.28F WCI  26
NEBRASKA CITY  LGT SNOW  30  27  88 S12       30.27F WCI  21
$$

NEZ044-045-051>053-067-052100-
OMAHA AREA

CITY           SKY/WX    TMP DP  RH WIND       PRES   REMARKS
OMAHA EPPLEY   LGT SNOW  29  27  92 S13       30.26F VSB 3/4 WCI  19
FREMONT        LGT SNOW  29  25  86 S10       30.23F WCI  20
OFFUTT AFB     LGT SNOW  29  28  93 S9        30.26F FOG     WCI  21
WAHOO          LGT SNOW  30  27  88 S7        30.24F WCI  23
$$




USA.gov is the U.S. government's official web portal to all federal, state and local government web resources and services.